TimeEDT,TemperatureF,Dew PointF,Humidity,Sea Level PressureIn,VisibilityMPH,Wind Direction,Wind SpeedMPH,Gust SpeedMPH,PrecipitationIn,Events,Conditions,WindDirDegrees,DateUTC
12:15 AM,53.6,53.6,100,30.04,10.0,ENE,12.7,19.6,N/A,,Overcast,60,2013-05-06 04:15:00
12:35 AM,53.6,53.6,100,30.04,7.0,East,12.7,18.4,N/A,,Overcast,80,2013-05-06 04:35:00
12:55 AM,53.6,53.6,100,30.04,7.0,ENE,10.4,-,N/A,,Overcast,70,2013-05-06 04:55:00
1:15 AM,53.6,53.6,100,30.04,7.0,ENE,10.4,18.4,N/A,,Overcast,70,2013-05-06 05:15:00
1:35 AM,53.6,53.6,100,30.03,5.0,East,12.7,17.3,N/A,,Drizzle,80,2013-05-06 05:35:00
1:55 AM,53.6,53.6,100,30.03,5.0,East,12.7,-,N/A,,Overcast,80,2013-05-06 05:55:00
2:15 AM,53.6,53.6,100,30.02,4.0,ENE,11.5,19.6,N/A,,Overcast,70,2013-05-06 06:15:00
2:35 AM,53.6,53.6,100,30.01,4.0,East,12.7,-,N/A,,Overcast,80,2013-05-06 06:35:00
2:55 AM,53.6,53.6,100,30.01,4.0,East,13.8,17.3,N/A,,Overcast,80,2013-05-06 06:55:00
3:15 AM,53.6,53.6,100,30.00,3.0,East,10.4,-,N/A,,Overcast,80,2013-05-06 07:15:00
3:35 AM,53.6,53.6,100,30.00,4.0,ENE,11.5,17.3,N/A,,Overcast,70,2013-05-06 07:35:00
3:55 AM,53.6,53.6,100,30.00,5.0,East,11.5,-,N/A,,Overcast,80,2013-05-06 07:55:00
4:15 AM,53.6,53.6,100,29.99,4.0,East,11.5,16.1,N/A,,Overcast,80,2013-05-06 08:15:00
4:35 AM,53.6,53.6,100,29.99,4.0,East,10.4,21.9,N/A,,Overcast,80,2013-05-06 08:35:00
4:55 AM,53.6,53.6,100,29.98,4.0,ENE,10.4,20.7,0.02,Rain,Rain,70,2013-05-06 08:55:00
5:15 AM,53.6,53.6,100,29.98,4.0,ENE,11.5,20.7,N/A,Rain,Rain,70,2013-05-06 09:15:00
5:35 AM,53.6,53.6,100,29.98,5.0,East,10.4,19.6,N/A,,Drizzle,80,2013-05-06 09:35:00
5:55 AM,53.6,53.6,100,29.97,4.0,ENE,11.5,-,0.02,Rain,Heavy Rain,70,2013-05-06 09:55:00
6:15 AM,53.6,53.6,100,29.98,5.0,East,11.5,16.1,N/A,,Drizzle,80,2013-05-06 10:15:00
6:35 AM,55.4,55.4,100,29.98,10.0,East,9.2,18.4,N/A,,Overcast,80,2013-05-06 10:35:00
6:55 AM,55.4,55.4,100,29.99,10.0,East,11.5,-,N/A,,Overcast,80,2013-05-06 10:55:00
7:15 AM,55.4,55.4,100,29.99,10.0,East,9.2,-,0.01,Rain,Light Rain,80,2013-05-06 11:15:00
7:35 AM,55.4,55.4,100,29.99,10.0,ENE,10.4,18.4,0.01,Thunderstorm,Unknown,70,2013-05-06 11:35:00
7:55 AM,55.4,55.4,100,30.00,10.0,East,12.7,17.3,0.01,,Overcast,80,2013-05-06 11:55:00
8:15 AM,55.4,55.4,100,30.00,7.0,East,10.4,20.7,N/A,,Overcast,80,2013-05-06 12:15:00
8:35 AM,55.4,55.4,100,30.00,10.0,East,11.5,19.6,N/A,,Overcast,80,2013-05-06 12:35:00
8:55 AM,55.4,55.4,100,29.99,10.0,ENE,12.7,20.7,N/A,,Overcast,70,2013-05-06 12:55:00
9:15 AM,55.4,55.4,100,29.99,7.0,East,10.4,21.9,N/A,,Overcast,90,2013-05-06 13:15:00
9:35 AM,57.2,57.2,100,29.99,7.0,ENE,11.5,17.3,N/A,,Overcast,70,2013-05-06 13:35:00
9:55 AM,57.2,57.2,100,29.99,10.0,East,11.5,-,N/A,,Overcast,80,2013-05-06 13:55:00
10:15 AM,59.0,59.0,100,29.99,10.0,East,11.5,-,N/A,,Overcast,80,2013-05-06 14:15:00
10:35 AM,59.0,59.0,100,29.99,10.0,East,15.0,19.6,N/A,,Overcast,80,2013-05-06 14:35:00
10:55 AM,59.0,59.0,100,29.99,10.0,East,10.4,-,0.01,,Overcast,80,2013-05-06 14:55:00
11:15 AM,60.8,60.8,100,29.98,7.0,East,15.0,18.4,N/A,,Light Drizzle,80,2013-05-06 15:15:00
11:35 AM,60.8,60.8,100,29.97,10.0,ENE,11.5,-,N/A,,Overcast,70,2013-05-06 15:35:00
11:55 AM,60.8,60.8,100,29.96,10.0,East,12.7,-,N/A,Rain,Rain,80,2013-05-06 15:55:00
12:15 PM,60.8,60.8,100,29.95,4.0,ENE,9.2,-,0.04,Rain,Light Rain,70,2013-05-06 16:15:00
12:35 PM,60.8,60.8,100,29.93,7.0,ENE,9.2,-,0.05,Rain,Rain,60,2013-05-06 16:35:00
12:55 PM,60.8,60.8,100,29.92,10.0,ENE,10.4,-,0.05,,Overcast,60,2013-05-06 16:55:00
1:15 PM,60.8,60.8,100,29.92,3.0,ENE,11.5,-,0.04,Rain-Thunderstorm,Heavy Thunderstorms and Rain,60,2013-05-06 17:15:00
1:35 PM,60.8,60.8,100,29.92,7.0,East,5.8,-,0.09,Rain-Thunderstorm,Rain,80,2013-05-06 17:35:00
1:55 PM,60.8,60.8,100,29.91,4.0,East,12.7,20.7,0.16,Rain-Thunderstorm,Light Thunderstorms and Rain,100,2013-05-06 17:55:00
2:15 PM,60.8,60.8,100,29.92,5.0,South,12.7,-,0.05,Rain-Thunderstorm,Rain,190,2013-05-06 18:15:00
2:35 PM,59.0,59.0,100,29.90,1.8,NNW,6.9,-,0.45,Rain-Thunderstorm,Heavy Thunderstorms and Rain,330,2013-05-06 18:35:00
2:55 PM,59.0,59.0,100,29.92,1.5,ENE,3.5,-,0.96,Rain-Thunderstorm,Heavy Thunderstorms and Rain,70,2013-05-06 18:55:00
3:15 PM,59.0,59.0,100,29.92,4.0,Calm,Calm,-,0.09,Rain-Thunderstorm,Thunderstorms and Rain,0,2013-05-06 19:15:00
3:35 PM,59.0,59.0,100,29.91,7.0,East,6.9,-,0.13,Rain-Thunderstorm,Thunderstorms and Rain,90,2013-05-06 19:35:00
3:55 PM,59.0,59.0,100,29.88,10.0,ENE,4.6,-,0.15,Rain-Thunderstorm,Light Thunderstorms and Rain,60,2013-05-06 19:55:00
4:15 PM,59.0,59.0,100,29.90,5.0,ESE,4.6,-,0.02,Rain-Thunderstorm,Rain,110,2013-05-06 20:15:00
4:35 PM,59.0,59.0,100,29.88,4.0,NE,6.9,-,0.07,Rain,Rain,50,2013-05-06 20:35:00
4:55 PM,59.0,59.0,100,29.89,10.0,East,8.1,-,0.07,,Overcast,80,2013-05-06 20:55:00
5:15 PM,59.0,59.0,100,29.88,10.0,NE,5.8,-,N/A,,Mostly Cloudy,50,2013-05-06 21:15:00
5:35 PM,60.8,59.0,94,29.87,10.0,Calm,Calm,-,N/A,,Scattered Clouds,0,2013-05-06 21:35:00
5:55 PM,62.6,59.0,88,29.87,10.0,Calm,Calm,-,N/A,Thunderstorm,Clear,0,2013-05-06 21:55:00
6:15 PM,62.6,59.0,88,29.88,10.0,Calm,Calm,-,N/A,,Scattered Clouds,0,2013-05-06 22:15:00
6:35 PM,62.6,59.0,88,29.88,10.0,Calm,Calm,-,N/A,,Mostly Cloudy,0,2013-05-06 22:35:00
6:55 PM,60.8,60.8,100,29.88,10.0,ENE,4.6,-,N/A,,Mostly Cloudy,60,2013-05-06 22:55:00
7:15 PM,60.8,60.8,100,29.88,10.0,Calm,Calm,-,N/A,,Scattered Clouds,0,2013-05-06 23:15:00
7:35 PM,60.8,60.8,100,29.89,10.0,NNE,4.6,-,N/A,,Scattered Clouds,20,2013-05-06 23:35:00
7:55 PM,60.8,60.8,100,29.89,10.0,NNE,5.8,-,N/A,Thunderstorm,Overcast,20,2013-05-06 23:55:00
8:15 PM,60.8,60.8,100,29.90,10.0,NNE,5.8,-,N/A,,Drizzle,30,2013-05-07 00:15:00
8:35 PM,60.8,60.8,100,29.90,2.5,East,8.1,-,N/A,Rain,Heavy Rain,80,2013-05-07 00:35:00
8:55 PM,60.8,60.8,100,29.90,10.0,ENE,6.9,-,0.13,,Overcast,60,2013-05-07 00:55:00
9:15 PM,59.0,59.0,100,29.91,10.0,ENE,8.1,-,N/A,,Mostly Cloudy,60,2013-05-07 01:15:00
9:35 PM,59.0,59.0,100,29.91,10.0,East,6.9,-,N/A,,Mostly Cloudy,80,2013-05-07 01:35:00
9:55 PM,59.0,59.0,100,29.92,10.0,ENE,6.9,-,N/A,,Mostly Cloudy,70,2013-05-07 01:55:00
10:15 PM,57.2,57.2,100,29.93,10.0,ENE,4.6,-,N/A,,Mostly Cloudy,70,2013-05-07 02:15:00
10:35 PM,59.0,59.0,100,29.93,10.0,East,4.6,-,N/A,,Overcast,80,2013-05-07 02:35:00
10:55 PM,57.2,57.2,100,29.92,10.0,East,4.6,-,N/A,,Mostly Cloudy,80,2013-05-07 02:55:00
11:15 PM,59.0,59.0,100,29.92,10.0,East,6.9,-,N/A,Rain,Light Rain,80,2013-05-07 03:15:00
11:35 PM,59.0,59.0,100,29.92,10.0,ESE,4.6,-,N/A,,Mostly Cloudy,110,2013-05-07 03:35:00
11:55 PM,59.0,59.0,100,29.91,10.0,Calm,Calm,-,N/A,Rain,Light Rain,0,2013-05-07 03:55:00